Location: St. Louis
(38.6270°N, 90.1994°W)
Time: 04:27:02
(UTC-06:00)

Vanguard 2 Rocket - Pass Details

Date: 30 November 2021
Orbit: 554 x 3324 km, 32.9° (Epoch: 17 January)

Event Time Altitude Azimuth Distance (km) Brightness Sun altitude
Exits shadow 01:37:38 16° 159° (SSE) 5,784 10.8 -61.3°
Drops below altitude 10° 01:40:30 10° 154° (SSE) 6,243 11.1 -60.8°
Sets 01:45:51 0° 147° (SSE) 7,142 11.5 -59.9°
